Miscellaneous Local Product
Issued by NWS Hastings, NE

Home | Current Version | Previous Version | Text Only | Print | Product List | Glossary Off
Versions: 1 2 3 4 5 6 7 8 9 10 11 12 13 14 15 16 17 18 19 20 21 22 23 24 25 26 27 28 29 30 31 32 33 34 35 36 37 38 39 40 41 42 43 44 45 46 47 48 49 50

000
AXUS43 KGID 201202
MISGRI

GID CWA HOURLY WEATHER ROUNDUP
NATIONAL WEATHER SERVICE HASTINGS NE
700 AM CDT WED AUG 20 2014

NOTE: "FAIR" INDICATES FEW OR NO CLOUDS BELOW 12,000 FEET WITH NO
SIGNIFICANT WEATHER AND/OR OBSTRUCTIONS TO VISIBILITY.

...SOUTH CENTRAL NEBRASKA...

CITY           SKY/WX    TMP DP  RH WIND       PRES   REMARKS
GRAND ISLAND   MOCLDY    74  64  71 S13       29.75F
HASTINGS       PTCLDY    70  62  76 S7        29.77F
KEARNEY        CLOUDY    72  64  78 S9        29.76S
ORD            CLOUDY    70  68  93 E3        29.74R
AURORA         MOCLDY    73  68  84 S10       29.77R
LEXINGTON      MOCLDY    71  65  82 S10       29.76S
HOLDREGE       CLOUDY    73  63  69 S12G17    29.78R
HEBRON         CLEAR     71  63  75 CALM      29.80R

...NEBRASKA PANHANDLE...

CITY           SKY/WX    TMP DP  RH WIND       PRES   REMARKS
CHADRON        CLOUDY    75  52  44 SW10      29.76R
ALLIANCE       CLOUDY    63  57  81 CALM      29.82S
SCOTTSBLUFF    CLOUDY    64  58  80 S6        29.83S
SIDNEY         CLOUDY    64  57  78 N3        29.86S

...WESTERN AND NORTH CENTRAL NEBRASKA...

CITY           SKY/WX    TMP DP  RH WIND       PRES   REMARKS
VALENTINE      PTCLDY    64  63  96 NE7       29.76R
AINSWORTH      CLEAR     66  66  98 CALM      29.76R
ONEILL         CLOUDY    71  69  94 SE6       29.77R
BROKEN BOW     MOCLDY    67  64  90 CALM      29.75R
IMPERIAL       CLOUDY    67  63  87 CALM      29.79R
NORTH PLATTE   MOCLDY    73  62  68 S7        29.75S
MCCOOK         CLOUDY    74  64  71 MISG      29.77S

...EASTERN NEBRASKA...

CITY           SKY/WX    TMP DP  RH WIND       PRES   REMARKS
NORFOLK        CLOUDY    71  66  84 E9        29.77F
SO SIOUX CITY  LGT RAIN  71  65  81 E10       29.78R
TEKAMAH        LGT RAIN  72  68  87 NE13      29.81R
COLUMBUS       MOCLDY    73  66  78 S5        29.78R
ALBION         CLOUDY    72  66  81 E5        29.76R
OMAHA EPPLEY   CLOUDY    75  68  78 SE7       29.79R
OFFUTT AFB     CLOUDY    74  73  99 E3        29.79R
MILLARD        CLOUDY    73  70  88 SE3       29.78R
LINCOLN        MOCLDY    77  66  68 S12       29.78R
NEBRASKA CITY  CLOUDY    73  70  88 S6        29.81R
BEATRICE       PTCLDY    73  67  81 S5        29.81R
FALLS CITY     MOCLDY    70  68  93 SE3       29.81R

...NORTHERN KANSAS...

CITY           SKY/WX    TMP DP  RH WIND       PRES   REMARKS
GOODLAND       PTCLDY    68  60  75 S12       29.82S
HILL CITY      MOCLDY    73  63  70 S6        29.80S
NORTON         SUNNY     73  61  64 S9        29.77S
PHILLIPSBURG   CLEAR     72  63  73 SE7       29.78S
SMITH CENTER   CLEAR     70  63  78 S9        29.79F
BELOIT         CLEAR     66  64  94 CALM      29.79S
HAYS           CLEAR     70  61  73 S5        29.82R
RUSSELL        CLEAR     71  63  75 S10       29.80R
CONCORDIA      CLEAR     71  66  84 S9        29.80S
SALINA         CLEAR     73  66  78 S8        29.81S
TOPEKA         PTCLDY    74  69  85 CALM      29.84R



USA.gov is the U.S. government's official web portal to all federal, state and local government web resources and services.